GW0883 Weather Reports


Display with metric or nautical units.
time (UTC)temp
F
wind
direction
speed
MPH
gust
MPH
rain 1hr
in
rain 24hr
in
rain mn
in
humidity
%
barometer
mb
20260508061438 39 292 0.0 0.0 0.00 0.03 0.00 47 1010.1
20260508060436 39 292 0.0 0.0 0.00 0.03 0.00 46 1010.1
20260508055436 39 292 0.0 0.0 0.00 0.03 0.00 46 1010.1
20260508054437 40 292 0.0 0.0 0.00 0.03 0.00 46 1010.2
20260508053536 40 292 0.0 0.0 0.00 0.03 0.00 46 1010.4
20260508052634 40 292 0.0 0.0 0.00 0.03 0.00 46 1010.5
20260508051638 41 292 0.0 0.0 0.00 0.03 0.00 45 1010.6
20260508050735 41 292 0.0 0.0 0.00 0.03 0.00 44 1010.8
20260508044836 42 292 0.0 1.0 0.00 0.03 0.00 44 1010.7
20260508043837 42 292 0.0 1.0 0.00 0.03 0.00 44 1010.7
20260508042036 42 225 0.0 0.0 0.00 0.03 0.00 43 1010.9
20260508041036 43 225 0.0 0.0 0.00 0.03 0.00 43 1010.8
20260508040135 43 225 0.0 1.0 0.00 0.03 0.00 43 1010.8
20260508035216 43 225 0.0 1.0 0.00 0.04 0.03 42 1010.8
20260508034215 44 225 0.0 0.0 0.00 0.04 0.03 42 1010.8
20260508033216 44 225 0.0 0.0 0.00 0.04 0.03 41 1010.8
20260508031315 44 225 0.0 0.0 0.00 0.04 0.03 42 1010.8
20260508031216 44 225 0.0 1.0 0.00 0.04 0.03 42 1010.9
20260508030217 45 225 0.0 2.0 0.00 0.04 0.03 42 1010.8
20260508025218 45 225 0.0 0.0 0.00 0.04 0.03 40 1010.8
20260508024216 45 225 0.0 0.0 0.00 0.04 0.03 40 1010.9
20260508021216 46 270 0.0 0.0 0.00 0.04 0.03 40 1010.9
20260508020217 46 270 0.0 0.0 0.00 0.04 0.03 39 1011.0
20260508015218 46 270 0.0 0.0 0.00 0.04 0.03 40 1011.0
20260508014315 47 270 0.0 0.0 0.00 0.04 0.03 39 1010.9
20260508013315 47 270 0.0 0.0 0.00 0.04 0.03 39 1010.8
20260508012332 48 270 0.0 0.0 0.00 0.04 0.03 39 1010.6
20260508005415 50 225 0.0 2.0 0.00 0.04 0.03 38 1010.2
20260508004415 50 270 0.0 0.0 0.00 0.04 0.03 38 1010.2
20260508003515 50 210 0.0 3.0 0.00 0.04 0.03 38 1009.8
20260508002516 51 270 0.0 0.0 0.00 0.04 0.03 39 1009.9
20260508001615 52 270 1.0 2.0 0.00 0.04 0.03 39 1009.9
20260508000617 53 270 0.0 0.0 0.00 0.04 0.03 38 1009.9
20260507235715 54 225 0.0 0.0 0.00 0.04 0.03 39 1009.7
20260507234715 54 223 2.0 5.0 0.00 0.04 0.03 38 1009.7
20260507233716 55 243 2.0 4.0 0.00 0.04 0.03 39 1009.5
20260507232716 55 337 0.0 1.0 0.00 0.04 0.03 38 1009.4
20260507231716 56 248 2.0 5.0 0.00 0.04 0.03 39 1009.5
20260507225815 57 222 3.0 9.0 0.00 0.05 0.03 39 1009.3
20260507224815 58 260 5.0 8.0 0.00 0.06 0.03 39 1009.3
20260507223816 58 214 4.0 6.0 0.00 0.07 0.03 41 1009.1
20260507222815 59 210 0.0 1.0 0.00 0.07 0.03 41 1009.0
20260507221818 60 198 2.0 4.0 0.00 0.07 0.03 40 1008.8
20260507220914 60 225 1.0 4.0 0.00 0.07 0.03 41 1008.9
20260507215915 61 209 4.0 9.0 0.00 0.07 0.03 42 1008.6
20260507214917 61 209 4.0 7.0 0.00 0.08 0.03 43 1008.7
20260507214015 61 263 1.0 5.0 0.00 0.08 0.03 43 1008.6
20260507212016 61 269 5.0 7.0 0.00 0.08 0.03 43 1008.3
20260507211015 62 238 4.0 7.0 0.00 0.08 0.03 43 1008.3
20260507210015 62 47 2.0 4.0 0.00 0.08 0.03 45 1008.3
20260507205016 62 220 3.0 4.0 0.00 0.08 0.03 44 1008.4
20260507204017 62 259 4.0 8.0 0.00 0.08 0.03 45 1008.3
20260507202116 63 214 3.0 4.0 0.00 0.09 0.03 47 1008.1
20260507201116 63 288 2.0 6.0 0.00 0.09 0.03 47 1008.1
20260507200116 62 328 2.0 5.0 0.00 0.10 0.03 48 1008.1
20260507195115 62 259 3.0 6.0 0.00 0.10 0.03 49 1008.3
20260507194214 62 27 2.0 5.0 0.00 0.11 0.03 49 1008.2
20260507193216 62 255 4.0 8.0 0.00 0.11 0.03 50 1008.5
20260507192215 62 229 3.0 7.0 0.00 0.12 0.03 51 1008.4
20260507191314 62 357 3.0 5.0 0.00 0.13 0.03 52 1008.5
20260507190315 62 304 0.0 2.0 0.00 0.14 0.03 52 1008.7
20260507185315 62 226 4.0 7.0 0.00 0.15 0.03 52 1008.9
20260507184316 62 246 5.0 10.0 0.00 0.15 0.03 54 1008.9
20260507183317 61 100 3.0 5.0 0.00 0.16 0.03 55 1008.9
20260507181316 61 195 3.0 6.0 0.00 0.16 0.03 56 1009.4
20260507175415 60 114 2.0 4.0 0.00 0.16 0.03 57 1009.3
20260507174416 60 248 5.0 8.0 0.00 0.16 0.03 59 1009.5
20260507174315 60 201 2.0 7.0 0.00 0.16 0.03 58 1009.4
20260507172317 59 243 6.0 8.0 0.00 0.16 0.03 61 1009.3
20260507171315 60 288 3.0 7.0 0.00 0.16 0.03 61 1009.5
20260507170317 59 65 3.0 6.0 0.00 0.16 0.03 63 1009.6
20260507165415 60 21 2.0 4.0 0.00 0.16 0.03 64 1009.8
20260507164416 59 214 2.0 4.0 0.00 0.16 0.03 64 1009.7
20260507163415 59 310 1.0 3.0 0.00 0.16 0.03 65 1009.9
20260507162414 58 256 1.0 4.0 0.00 0.16 0.03 66 1010.0
20260507155416 58 258 5.0 8.0 0.00 0.16 0.03 69 1010.2
20260507154516 58 258 5.0 11.0 0.00 0.16 0.03 69 1010.2
20260507153417 58 191 1.0 3.0 0.00 0.16 0.03 70 1010.2
20260507150415 57 214 5.0 7.0 0.00 0.16 0.03 73 1010.6
20260507145514 58 297 3.0 4.0 0.00 0.16 0.03 74 1010.6
20260507144517 58 146 1.0 4.0 0.00 0.16 0.03 75 1010.7
20260507143515 57 240 2.0 6.0 0.00 0.16 0.03 76 1010.8
20260507142516 56 34 2.0 6.0 0.00 0.16 0.03 77 1010.8
20260507141516 56 273 2.0 4.0 0.00 0.16 0.03 77 1010.8
20260507140515 56 201 1.0 2.0 0.00 0.16 0.03 78 1010.9
20260507135516 56 244 5.0 7.0 0.00 0.16 0.03 79 1010.9
20260507134516 56 28 2.0 7.0 0.00 0.16 0.03 79 1010.6
20260507133515 56 240 2.0 4.0 0.00 0.16 0.03 80 1010.6
20260507132515 55 132 1.0 5.0 0.00 0.16 0.03 81 1010.8
20260507131517 55 325 1.0 3.0 0.00 0.16 0.03 81 1010.8
20260507130615 54 204 5.0 7.0 0.00 0.16 0.03 82 1010.8
20260507125714 54 229 1.0 4.0 0.00 0.16 0.03 82 1010.9
20260507124716 54 211 2.0 5.0 0.00 0.16 0.03 83 1011.0
20260507123814 53 4 1.0 5.0 0.00 0.16 0.03 83 1011.0
20260507122815 52 286 4.0 7.0 0.00 0.16 0.03 84 1010.9
20260507121817 52 266 2.0 6.0 0.00 0.16 0.03 84 1010.9
20260507120816 51 239 0.0 3.0 0.00 0.16 0.03 83 1011.1
20260507115817 51 253 4.0 6.0 0.00 0.16 0.03 84 1010.9
20260507114817 50 333 1.0 3.0 0.00 0.16 0.03 83 1010.9
20260507112915 49 225 1.0 3.0 0.00 0.16 0.03 84 1010.6
20260507111918 48 229 1.0 3.0 0.00 0.16 0.03 83 1010.8
20260507110915 48 223 1.0 2.0 0.00 0.16 0.03 83 1010.7
20260507105915 48 204 0.0 1.0 0.00 0.16 0.03 84 1010.6
20260507104916 47 202 0.0 1.0 0.00 0.16 0.03 84 1010.7
20260507102916 47 238 0.0 1.0 0.00 0.16 0.03 84 1010.4
20260507102015 47 223 1.0 3.0 0.01 0.16 0.03 84 1010.1
20260507101014 47 225 0.0 0.0 0.01 0.16 0.03 83 1009.9
20260507100019 47 67 0.0 0.0 0.01 0.16 0.03 83 1009.7
20260507095016 47 225 0.0 1.0 0.01 0.16 0.03 83 1010.0
20260507094015 47 67 0.0 0.0 0.01 0.16 0.03 83 1009.6
20260507093016 47 202 0.0 0.0 0.02 0.16 0.03 82 1010.2
20260507092016 47 202 0.0 0.0 0.01 0.15 0.02 82 1010.0
20260507091017 48 315 0.0 0.0 0.01 0.15 0.02 83 1010.1
20260507090015 48 225 0.0 0.0 0.01 0.15 0.02 83 1010.3
20260507085017 48 245 2.0 4.0 0.01 0.15 0.02 82 1010.6
20260507084016 48 270 0.0 0.0 0.01 0.15 0.02 82 1010.5
20260507083017 48 270 0.0 1.0 0.00 0.14 0.01 82 1010.1
20260507082016 48 209 1.0 2.0 0.01 0.14 0.01 82 1010.1
20260507081016 48 225 0.0 2.0 0.01 0.14 0.01 82 1010.0
20260507080017 48 247 1.0 2.0 0.01 0.14 0.01 83 1010.0
20260507075016 49 202 0.0 0.0 0.01 0.14 0.01 83 1010.0
20260507074017 49 310 0.0 1.0 0.01 0.14 0.01 82 1010.2
20260507073114 50 247 0.0 0.0 0.01 0.14 0.01 82 1010.1
20260507072116 51 276 0.0 1.0 0.00 0.13 0.00 83 1010.2
20260507071117 51 225 0.0 1.0 0.00 0.13 0.00 83 1009.6
20260507063216 51 225 0.0 0.0 0.00 0.13 0.00 84 1009.3
20260507062216 51 214 0.0 1.0 0.00 0.13 0.00 85 1009.5